TimeEDT,TemperatureF,Dew PointF,Humidity,Sea Level PressureIn,VisibilityMPH,Wind Direction,Wind SpeedMPH,Gust SpeedMPH,PrecipitationIn,Events,Conditions,WindDirDegrees,DateUTC
12:54 AM,33.1,12.0,42,29.96,10.0,NW,4.6,-,N/A,,Clear,310,2013-04-02 04:54:00
1:54 AM,30.9,12.9,47,29.97,10.0,West,3.5,-,N/A,,Clear,280,2013-04-02 05:54:00
2:54 AM,30.9,12.0,46,29.96,-9999.0,West,4.6,-,N/A,,Unknown,280,2013-04-02 06:54:00
3:54 AM,30.9,10.9,43,29.96,10.0,West,5.8,-,N/A,,Clear,280,2013-04-02 07:54:00
4:54 AM,30.0,10.9,45,29.98,10.0,WNW,8.1,-,N/A,,Clear,290,2013-04-02 08:54:00
5:54 AM,28.9,10.9,47,29.99,10.0,West,3.5,-,N/A,,Clear,270,2013-04-02 09:54:00
6:54 AM,28.9,12.0,49,30.01,10.0,West,3.5,-,N/A,,Unknown,280,2013-04-02 10:54:00
7:54 AM,30.9,12.9,47,30.03,10.0,West,8.1,-,N/A,,Clear,280,2013-04-02 11:54:00
8:54 AM,35.1,14.0,42,30.06,10.0,WNW,15.0,23.0,N/A,,Clear,290,2013-04-02 12:54:00
9:54 AM,36.0,10.9,36,30.06,10.0,NW,21.9,27.6,N/A,,Clear,310,2013-04-02 13:54:00
10:54 AM,37.0,14.0,39,30.06,10.0,WNW,15.0,25.3,N/A,,Scattered Clouds,290,2013-04-02 14:54:00
11:54 AM,39.0,10.9,32,30.06,10.0,WNW,16.1,24.2,N/A,,Scattered Clouds,290,2013-04-02 15:54:00
12:54 PM,39.0,10.0,30,30.04,10.0,NW,20.7,28.8,N/A,,Partly Cloudy,320,2013-04-02 16:54:00
1:54 PM,39.9,12.0,32,30.03,10.0,WNW,11.5,26.5,N/A,,Clear,300,2013-04-02 17:54:00
2:54 PM,42.1,10.9,28,30.02,10.0,WNW,20.7,31.1,N/A,,Partly Cloudy,300,2013-04-02 18:54:00
3:54 PM,44.1,10.9,26,30.01,10.0,WNW,10.4,23.0,N/A,,Scattered Clouds,290,2013-04-02 19:54:00
4:54 PM,43.0,10.0,26,30.01,10.0,WNW,13.8,26.5,N/A,,Partly Cloudy,290,2013-04-02 20:54:00
5:54 PM,41.0,9.0,27,30.03,10.0,WNW,13.8,27.6,N/A,,Clear,290,2013-04-02 21:54:00
6:54 PM,39.9,9.0,28,30.04,10.0,WNW,13.8,23.0,N/A,,Partly Cloudy,290,2013-04-02 22:54:00
7:54 PM,37.9,9.0,30,30.06,10.0,WNW,11.5,23.0,N/A,,Clear,290,2013-04-02 23:54:00
8:54 PM,37.0,10.0,33,30.09,10.0,WNW,9.2,-,N/A,,Clear,290,2013-04-03 00:54:00
9:54 PM,36.0,10.9,36,30.11,10.0,West,10.4,-,N/A,,Clear,280,2013-04-03 01:54:00
10:54 PM,35.1,12.0,39,30.12,10.0,West,6.9,-,N/A,,Clear,270,2013-04-03 02:54:00
11:54 PM,34.0,12.9,42,30.12,10.0,WNW,8.1,-,N/A,,Clear,290,2013-04-03 03:54:00